TAV14WJ EFHK-EKCH

Flight info

Callsign TAV14WJ
Flight time 1h 21m
Altitude 38000
Route NUNTO Y369 REKDO DCT KOSKA DCT TOKSI N872 ERNOV
Aircraft A20N/M-SDE2E3FGHIJ1RWXY/LB1

Departure

Time 2026-05-07 17:40
Airport Helsinki Vantaa Airport (EFHK)

Arrival

Time 2026-05-07 19:01
Airport Copenhagen Kastrup Airport (EKCH)
Time Latitude Longitude Altitude Speed Heading
2026-05-07 17:02 60.31961 24.96736 185 ft 0 kts 176°
2026-05-07 17:30 60.31962 24.96736 185 ft 1 kts 176°
2026-05-07 17:30 60.31977 24.96734 184 ft 2 kts 176°
2026-05-07 17:30 60.31992 24.96732 183 ft 2 kts 176°
2026-05-07 17:30 60.32007 24.96726 183 ft 2 kts 140°
2026-05-07 17:31 60.32016 24.96698 183 ft 2 kts 95°
2026-05-07 17:31 60.32012 24.96667 183 ft 2 kts 51°
2026-05-07 17:31 60.32001 24.96645 183 ft 2 kts 49°
2026-05-07 17:31 60.31994 24.96629 183 ft 1 kts 48°
2026-05-07 17:32 60.31994 24.96628 183 ft 0 kts 48°
2026-05-07 17:33 60.32008 24.96660 183 ft 5 kts 48°
2026-05-07 17:33 60.32046 24.96746 182 ft 9 kts 48°
2026-05-07 17:34 60.32107 24.96863 179 ft 13 kts 19°
2026-05-07 17:34 60.32198 24.96791 177 ft 14 kts 330°
2026-05-07 17:34 60.32283 24.96689 177 ft 13 kts 329°
2026-05-07 17:34 60.32334 24.96629 178 ft 5 kts 330°
2026-05-07 17:35 60.32344 24.96617 178 ft 1 kts 330°
2026-05-07 17:35 60.32393 24.96560 181 ft 12 kts 329°
2026-05-07 17:35 60.32457 24.96484 184 ft 8 kts 329°
2026-05-07 17:35 60.32507 24.96427 186 ft 8 kts 330°
2026-05-07 17:36 60.32564 24.96361 189 ft 10 kts 329°
2026-05-07 17:36 60.32633 24.96277 191 ft 13 kts 329°
2026-05-07 17:36 60.32720 24.96175 193 ft 15 kts 330°
2026-05-07 17:36 60.32814 24.96066 195 ft 14 kts 328°
2026-05-07 17:37 60.32898 24.95961 196 ft 14 kts 328°
2026-05-07 17:37 60.32982 24.95857 196 ft 14 kts 329°
2026-05-07 17:37 60.33069 24.95753 198 ft 13 kts 328°
2026-05-07 17:37 60.33142 24.95636 200 ft 12 kts 317°
2026-05-07 17:38 60.33199 24.95515 203 ft 10 kts 301°
2026-05-07 17:38 60.33194 24.95369 204 ft 12 kts 236°
2026-05-07 17:38 60.33132 24.95220 205 ft 13 kts 234°
2026-05-07 17:38 60.33110 24.95037 205 ft 14 kts 272°
2026-05-07 17:39 60.33114 24.94798 203 ft 17 kts 271°
2026-05-07 17:39 60.33115 24.94528 202 ft 18 kts 269°
2026-05-07 17:39 60.33095 24.94355 202 ft 10 kts 233°
2026-05-07 17:39 60.33027 24.94197 203 ft 36 kts 227°
2026-05-07 17:40 60.32649 24.93368 196 ft 113 kts 227°
2026-05-07 17:40 60.31966 24.91798 282 ft 162 kts 227°
2026-05-07 17:40 60.31198 24.90028 926 ft 170 kts 228°
2026-05-07 17:40 60.30459 24.88329 1874 ft 160 kts 235°
2026-05-07 17:41 60.29854 24.86541 2667 ft 156 kts 242°
2026-05-07 17:41 60.29563 24.84550 3303 ft 153 kts 277°
2026-05-07 17:41 60.29787 24.82393 3843 ft 163 kts 288°
2026-05-07 17:41 60.30127 24.80126 4322 ft 179 kts 289°
2026-05-07 17:42 60.30256 24.77493 4820 ft 201 kts 264°
2026-05-07 17:42 60.29814 24.74698 5318 ft 220 kts 252°
2026-05-07 17:42 60.29195 24.71660 5734 ft 244 kts 250°
2026-05-07 17:42 60.28519 24.68430 6279 ft 263 kts 250°
2026-05-07 17:43 60.27791 24.64938 7029 ft 275 kts 250°
2026-05-07 17:43 60.27068 24.61454 8006 ft 276 kts 250°
2026-05-07 17:43 60.26333 24.57898 9032 ft 276 kts 250°
2026-05-07 17:43 60.25606 24.54359 10000 ft 276 kts 249°
2026-05-07 17:44 60.24877 24.50808 10953 ft 277 kts 249°
2026-05-07 17:44 60.24078 24.47323 11855 ft 278 kts 245°
2026-05-07 17:44 60.23136 24.43759 12509 ft 290 kts 245°
2026-05-07 17:44 60.22155 24.40098 12976 ft 305 kts 245°
2026-05-07 17:45 60.21130 24.36297 13732 ft 309 kts 245°
2026-05-07 17:45 60.20120 24.32565 14620 ft 309 kts 244°
2026-05-07 17:45 60.19088 24.28748 15470 ft 310 kts 244°
2026-05-07 17:45 60.18068 24.24975 16266 ft 312 kts 245°
2026-05-07 17:46 60.17033 24.21151 17052 ft 314 kts 245°
2026-05-07 17:46 60.16002 24.17348 17672 ft 319 kts 245°
2026-05-07 17:46 60.14926 24.13390 18338 ft 323 kts 245°
2026-05-07 17:46 60.13850 24.09441 19036 ft 326 kts 245°
2026-05-07 17:47 60.12766 24.05464 19726 ft 327 kts 245°
2026-05-07 17:47 60.11671 24.01455 20392 ft 329 kts 245°
2026-05-07 17:47 60.10571 23.97433 21052 ft 331 kts 245°
2026-05-07 17:47 60.09462 23.93387 21701 ft 332 kts 245°
2026-05-07 17:48 60.08342 23.89308 22331 ft 334 kts 245°
2026-05-07 17:48 60.07232 23.85117 22915 ft 335 kts 245°
2026-05-07 17:48 60.06132 23.80890 23503 ft 337 kts 245°
2026-05-07 17:48 60.05003 23.76561 24104 ft 339 kts 245°
2026-05-07 17:49 60.03864 23.72210 24685 ft 340 kts 245°
2026-05-07 17:49 60.02718 23.67844 25182 ft 343 kts 245°
2026-05-07 17:49 60.01563 23.63456 25669 ft 347 kts 245°
2026-05-07 17:49 60.00349 23.58859 26162 ft 349 kts 245°
2026-05-07 17:50 59.99132 23.54248 26625 ft 353 kts 245°
2026-05-07 17:50 59.97915 23.49662 27093 ft 355 kts 245°
2026-05-07 17:50 59.96666 23.44960 27543 ft 358 kts 245°
2026-05-07 17:50 59.95393 23.40176 27970 ft 361 kts 245°
2026-05-07 17:51 59.94114 23.35381 28400 ft 364 kts 245°
2026-05-07 17:51 59.92853 23.30671 28813 ft 366 kts 244°
2026-05-07 17:51 59.91565 23.25862 29205 ft 369 kts 244°
2026-05-07 17:51 59.90266 23.21022 29585 ft 372 kts 244°
2026-05-07 17:52 59.88950 23.16131 30034 ft 373 kts 245°
2026-05-07 17:52 59.87604 23.11140 30563 ft 373 kts 245°
2026-05-07 17:52 59.86264 23.06184 31072 ft 371 kts 245°
2026-05-07 17:52 59.84906 23.01173 31525 ft 371 kts 245°
2026-05-07 17:53 59.83569 22.96241 31901 ft 371 kts 245°
2026-05-07 17:53 59.82225 22.91293 32262 ft 372 kts 244°
2026-05-07 17:53 59.80911 22.86477 32601 ft 372 kts 244°
2026-05-07 17:53 59.79568 22.81569 32954 ft 373 kts 244°
2026-05-07 17:54 59.78200 22.76573 33313 ft 373 kts 244°
2026-05-07 17:54 59.76848 22.71643 33624 ft 373 kts 244°
2026-05-07 17:54 59.75479 22.66655 33888 ft 374 kts 244°
2026-05-07 17:54 59.74063 22.61519 34160 ft 374 kts 244°
2026-05-07 17:55 59.72653 22.56417 34460 ft 374 kts 244°
2026-05-07 17:55 59.71247 22.51337 34713 ft 374 kts 244°
2026-05-07 17:55 59.69875 22.46388 34979 ft 374 kts 244°
2026-05-07 17:55 59.68503 22.41450 35221 ft 374 kts 244°
2026-05-07 17:56 59.67137 22.36551 35438 ft 375 kts 244°
2026-05-07 17:56 59.65701 22.31411 35647 ft 375 kts 243°
2026-05-07 17:56 59.64308 22.26435 35877 ft 376 kts 243°
2026-05-07 17:56 59.62883 22.21350 36100 ft 376 kts 243°
2026-05-07 17:57 59.61439 22.16211 36342 ft 377 kts 243°
2026-05-07 17:57 59.60482 22.12815 36474 ft 378 kts 243°
2026-05-07 17:57 59.58594 22.06125 36691 ft 380 kts 243°
2026-05-07 17:57 59.57119 22.00915 36862 ft 382 kts 243°
2026-05-07 17:58 59.55661 21.95773 37022 ft 383 kts 243°
2026-05-07 17:58 59.54183 21.90572 37183 ft 384 kts 243°
2026-05-07 17:58 59.52702 21.85375 37340 ft 385 kts 243°
2026-05-07 17:58 59.51192 21.80085 37511 ft 387 kts 242°
2026-05-07 17:59 59.49716 21.74931 37642 ft 388 kts 242°
2026-05-07 17:59 59.48207 21.69670 37788 ft 389 kts 242°
2026-05-07 17:59 59.46698 21.64435 37924 ft 390 kts 243°
2026-05-07 17:59 59.45170 21.59136 38073 ft 391 kts 243°
2026-05-07 18:00 59.42142 21.48651 38115 ft 392 kts 243°
2026-05-07 18:00 59.39108 21.38183 38093 ft 392 kts 242°
2026-05-07 18:01 59.36108 21.27891 38114 ft 392 kts 242°
2026-05-07 18:01 59.33089 21.17579 38101 ft 392 kts 242°
2026-05-07 18:02 59.28526 21.02073 38120 ft 392 kts 242°
2026-05-07 18:03 59.25485 20.91798 38115 ft 393 kts 241°
2026-05-07 18:03 59.22734 20.82545 38110 ft 392 kts 241°
2026-05-07 18:04 59.19982 20.73329 38125 ft 393 kts 242°
2026-05-07 18:04 59.17341 20.63974 38117 ft 393 kts 245°
2026-05-07 18:05 59.14829 20.54259 38131 ft 393 kts 245°
2026-05-07 18:05 59.12268 20.44414 38072 ft 392 kts 245°
2026-05-07 18:06 59.09713 20.34630 38145 ft 393 kts 244°
2026-05-07 18:06 59.07162 20.24898 38113 ft 393 kts 244°
2026-05-07 18:07 59.04606 20.15187 38120 ft 394 kts 244°
2026-05-07 18:07 59.02024 20.05421 38101 ft 395 kts 244°
2026-05-07 18:08 58.99419 19.95604 38118 ft 396 kts 244°
2026-05-07 18:08 58.96823 19.85872 38119 ft 396 kts 244°
2026-05-07 18:09 58.94210 19.76119 38109 ft 396 kts 244°
2026-05-07 18:09 58.91594 19.66392 38115 ft 395 kts 244°
2026-05-07 18:10 58.88952 19.56608 38118 ft 395 kts 244°
2026-05-07 18:10 58.86315 19.46884 38135 ft 395 kts 244°
2026-05-07 18:11 58.83684 19.37227 38130 ft 395 kts 244°
2026-05-07 18:11 58.81033 19.27539 38129 ft 397 kts 243°
2026-05-07 18:12 58.78389 19.17923 38119 ft 397 kts 244°
2026-05-07 18:12 58.75738 19.08314 38117 ft 397 kts 244°
2026-05-07 18:13 58.73072 18.98691 38128 ft 397 kts 244°
2026-05-07 18:13 58.70414 18.89134 38123 ft 396 kts 243°
2026-05-07 18:14 58.67737 18.79553 38126 ft 396 kts 243°
2026-05-07 18:14 58.65048 18.69974 38110 ft 396 kts 243°
2026-05-07 18:15 58.62330 18.60330 38121 ft 397 kts 243°
2026-05-07 18:15 58.59608 18.50702 38118 ft 397 kts 243°
2026-05-07 18:16 58.56864 18.41055 38115 ft 398 kts 243°
2026-05-07 18:16 58.54116 18.31429 38122 ft 398 kts 243°
2026-05-07 18:17 58.51363 18.21819 38116 ft 399 kts 243°
2026-05-07 18:17 58.48612 18.12254 38119 ft 399 kts 242°
2026-05-07 18:18 58.45855 18.02713 38112 ft 399 kts 242°
2026-05-07 18:18 58.43133 17.93337 38111 ft 399 kts 242°
2026-05-07 18:19 58.40405 17.83969 38106 ft 401 kts 242°
2026-05-07 18:19 58.37657 17.74580 38103 ft 401 kts 243°
2026-05-07 18:20 58.34929 17.65291 38108 ft 401 kts 243°
2026-05-07 18:20 58.32172 17.55937 38110 ft 401 kts 243°
2026-05-07 18:21 58.29424 17.46656 38110 ft 402 kts 243°
2026-05-07 18:21 58.26622 17.37225 38110 ft 402 kts 242°
2026-05-07 18:22 58.23826 17.27859 38110 ft 404 kts 242°
2026-05-07 18:22 58.20950 17.18265 38114 ft 404 kts 242°
2026-05-07 18:23 58.18057 17.08651 38115 ft 405 kts 242°
2026-05-07 18:23 58.15122 16.98937 38110 ft 406 kts 242°
2026-05-07 18:24 58.12148 16.89137 38119 ft 405 kts 242°
2026-05-07 18:24 58.09167 16.79352 38118 ft 405 kts 242°
2026-05-07 18:25 58.06144 16.69475 38120 ft 405 kts 242°
2026-05-07 18:25 58.03119 16.59627 38112 ft 406 kts 242°
2026-05-07 18:26 58.00082 16.49786 38107 ft 406 kts 242°
2026-05-07 18:26 57.97025 16.39920 38105 ft 407 kts 242°
2026-05-07 18:27 57.93940 16.30009 38099 ft 408 kts 240°
2026-05-07 18:27 57.90870 16.20179 38093 ft 409 kts 240°
2026-05-07 18:28 57.87777 16.10327 38091 ft 409 kts 240°
2026-05-07 18:28 57.84610 16.00278 38094 ft 409 kts 240°
2026-05-07 18:29 57.81453 15.90300 38103 ft 409 kts 240°
2026-05-07 18:29 57.78292 15.80355 38098 ft 410 kts 240°
2026-05-07 18:30 57.75100 15.70356 38107 ft 411 kts 240°
2026-05-07 18:30 57.71936 15.60486 38101 ft 410 kts 240°
2026-05-07 18:31 57.68765 15.50627 38097 ft 410 kts 240°
2026-05-07 18:31 57.65523 15.40601 38101 ft 410 kts 240°
2026-05-07 18:32 57.62180 15.30302 38085 ft 411 kts 239°
2026-05-07 18:32 57.58731 15.19725 38089 ft 411 kts 239°
2026-05-07 18:33 57.55263 15.09135 38098 ft 412 kts 239°
2026-05-07 18:33 57.51819 14.98659 38097 ft 412 kts 239°
2026-05-07 18:34 57.48779 14.89458 38078 ft 412 kts 239°
2026-05-07 18:34 57.45680 14.80111 38079 ft 412 kts 239°
2026-05-07 18:35 57.42686 14.71119 38081 ft 413 kts 239°
2026-05-07 18:35 57.39600 14.61881 38072 ft 413 kts 239°
2026-05-07 18:36 57.36479 14.52574 38061 ft 414 kts 239°
2026-05-07 18:36 57.33341 14.43256 37893 ft 415 kts 239°
2026-05-07 18:36 57.31811 14.38731 37651 ft 413 kts 239°
2026-05-07 18:37 57.30277 14.34197 37399 ft 412 kts 239°
2026-05-07 18:37 57.28772 14.29764 37167 ft 410 kts 239°
2026-05-07 18:37 57.27240 14.25252 36926 ft 408 kts 239°
2026-05-07 18:37 57.25727 14.20807 36696 ft 408 kts 239°
2026-05-07 18:38 57.24216 14.16373 36431 ft 409 kts 239°
2026-05-07 18:38 57.22697 14.11930 36144 ft 411 kts 239°
2026-05-07 18:38 57.21166 14.07461 35609 ft 415 kts 240°
2026-05-07 18:38 57.19593 14.02923 34994 ft 422 kts 238°
2026-05-07 18:39 57.17896 13.98520 34192 ft 429 kts 235°
2026-05-07 18:39 57.16039 13.94284 33460 ft 432 kts 232°
2026-05-07 18:39 57.13995 13.90183 32793 ft 434 kts 228°
2026-05-07 18:39 57.11857 13.86396 32187 ft 433 kts 224°
2026-05-07 18:40 57.09562 13.82813 31548 ft 434 kts 221°
2026-05-07 18:40 57.07155 13.79434 30846 ft 435 kts 219°
2026-05-07 18:40 57.04763 13.76115 30082 ft 437 kts 219°
2026-05-07 18:40 57.02346 13.72758 29343 ft 437 kts 219°
2026-05-07 18:41 56.99968 13.69457 28836 ft 432 kts 219°
2026-05-07 18:41 56.97601 13.66178 28359 ft 426 kts 219°
2026-05-07 18:41 56.95237 13.62904 27869 ft 422 kts 219°
2026-05-07 18:41 56.92912 13.59691 27384 ft 417 kts 219°
2026-05-07 18:42 56.90627 13.56537 26902 ft 413 kts 219°
2026-05-07 18:42 56.88363 13.53417 26421 ft 409 kts 219°
2026-05-07 18:42 56.86116 13.50324 25941 ft 405 kts 219°
2026-05-07 18:42 56.83870 13.47238 25455 ft 402 kts 219°
2026-05-07 18:43 56.81648 13.44189 24974 ft 399 kts 219°
2026-05-07 18:43 56.79470 13.41205 24499 ft 395 kts 219°
2026-05-07 18:43 56.77283 13.38214 24027 ft 392 kts 219°
2026-05-07 18:43 56.75129 13.35271 23573 ft 389 kts 219°
2026-05-07 18:44 56.72945 13.32294 23098 ft 387 kts 218°
2026-05-07 18:44 56.70802 13.29371 22626 ft 385 kts 218°
2026-05-07 18:44 56.68704 13.26508 22168 ft 382 kts 218°
2026-05-07 18:44 56.66565 13.23598 21688 ft 380 kts 218°
2026-05-07 18:45 56.64487 13.20774 21224 ft 378 kts 218°
2026-05-07 18:45 56.62395 13.17939 20759 ft 375 kts 218°
2026-05-07 18:45 56.60312 13.15130 20311 ft 372 kts 218°
2026-05-07 18:45 56.58247 13.12346 19849 ft 370 kts 218°
2026-05-07 18:46 56.56186 13.09573 19381 ft 367 kts 218°
2026-05-07 18:46 56.54173 13.06868 18934 ft 364 kts 218°
2026-05-07 18:46 56.52146 13.04146 18476 ft 362 kts 218°
2026-05-07 18:46 56.50141 13.01459 18020 ft 360 kts 218°
2026-05-07 18:47 56.48141 12.98780 17555 ft 358 kts 218°
2026-05-07 18:47 56.46146 12.96112 17091 ft 356 kts 218°
2026-05-07 18:47 56.44179 12.93486 16636 ft 354 kts 218°
2026-05-07 18:47 56.42210 12.90862 16173 ft 352 kts 218°
2026-05-07 18:48 56.40257 12.88261 15715 ft 350 kts 218°
2026-05-07 18:48 56.38300 12.85661 15261 ft 348 kts 218°
2026-05-07 18:48 56.36346 12.83065 14807 ft 346 kts 217°
2026-05-07 18:48 56.34430 12.80521 14360 ft 344 kts 217°
2026-05-07 18:49 56.32524 12.77996 13912 ft 341 kts 217°
2026-05-07 18:49 56.30629 12.75489 13469 ft 339 kts 217°
2026-05-07 18:49 56.28730 12.72977 13024 ft 338 kts 217°
2026-05-07 18:49 56.26850 12.70496 12580 ft 336 kts 217°
2026-05-07 18:50 56.24974 12.68023 12151 ft 334 kts 217°
2026-05-07 18:50 56.23108 12.65569 11689 ft 333 kts 217°
2026-05-07 18:50 56.21259 12.63139 11389 ft 326 kts 217°
2026-05-07 18:50 56.19469 12.60792 11286 ft 313 kts 217°
2026-05-07 18:51 56.17732 12.58579 11140 ft 302 kts 212°
2026-05-07 18:51 56.15878 12.56956 11046 ft 292 kts 200°
2026-05-07 18:51 56.13920 12.55912 11085 ft 295 kts 195°
2026-05-07 18:51 56.11940 12.55001 11102 ft 296 kts 194°
2026-05-07 18:52 56.09939 12.54096 11107 ft 296 kts 194°
2026-05-07 18:52 56.07959 12.53191 11103 ft 296 kts 194°
2026-05-07 18:52 56.05956 12.52266 10989 ft 292 kts 194°
2026-05-07 18:52 56.03981 12.51348 10583 ft 292 kts 194°
2026-05-07 18:53 56.01995 12.50422 10161 ft 292 kts 194°
2026-05-07 18:53 55.99976 12.49482 9768 ft 291 kts 194°
2026-05-07 18:53 55.97989 12.48557 9397 ft 288 kts 194°
2026-05-07 18:53 55.95992 12.47627 9012 ft 286 kts 194°
2026-05-07 18:54 55.94019 12.46709 8631 ft 284 kts 194°
2026-05-07 18:54 55.92051 12.45784 8246 ft 283 kts 194°
2026-05-07 18:54 55.90080 12.44850 7857 ft 281 kts 194°
2026-05-07 18:54 55.88090 12.43930 7459 ft 279 kts 190°
2026-05-07 18:55 55.86113 12.43956 6990 ft 270 kts 162°
2026-05-07 18:55 55.84430 12.45607 6336 ft 263 kts 133°
2026-05-07 18:55 55.83455 12.48318 5678 ft 258 kts 111°
2026-05-07 18:55 55.82856 12.51317 5000 ft 258 kts 107°
2026-05-07 18:56 55.82319 12.54357 4350 ft 258 kts 105°
2026-05-07 18:56 55.81781 12.57434 3989 ft 258 kts 105°
2026-05-07 18:56 55.81239 12.60519 3940 ft 259 kts 105°
2026-05-07 18:56 55.80708 12.63540 3710 ft 257 kts 105°
2026-05-07 18:57 55.80168 12.66584 3258 ft 259 kts 106°
2026-05-07 18:57 55.79399 12.69522 2833 ft 263 kts 121°
2026-05-07 18:57 55.78344 12.72197 2461 ft 263 kts 124°
2026-05-07 18:57 55.77146 12.74618 2077 ft 264 kts 139°
2026-05-07 18:58 55.75628 12.76301 1931 ft 254 kts 161°
2026-05-07 18:58 55.73947 12.76995 1937 ft 238 kts 171°
2026-05-07 18:58 55.72357 12.77146 1885 ft 225 kts 185°
2026-05-07 18:58 55.70840 12.76912 1777 ft 215 kts 188°
2026-05-07 18:59 55.69406 12.76495 1659 ft 196 kts 198°
2026-05-07 18:59 55.68229 12.75647 1584 ft 171 kts 214°
2026-05-07 18:59 55.67321 12.74412 1396 ft 156 kts 223°
2026-05-07 18:59 55.66525 12.73162 1126 ft 148 kts 226°
2026-05-07 19:00 55.65785 12.71891 906 ft 147 kts 226°
2026-05-07 19:00 55.65035 12.70638 690 ft 145 kts 224°
2026-05-07 19:00 55.64276 12.69447 512 ft 143 kts 221°
2026-05-07 19:00 55.63526 12.68290 321 ft 141 kts 222°
2026-05-07 19:01 55.62783 12.67142 121 ft 139 kts 221°
2026-05-07 19:01 55.62067 12.66021 15 ft 129 kts 221°
2026-05-07 19:01 55.61638 12.65354 15 ft 22 kts 230°
2026-05-07 19:01 55.61606 12.65110 15 ft 20 kts 279°
2026-05-07 19:02 55.61676 12.64891 15 ft 19 kts 313°
2026-05-07 19:02 55.61801 12.64784 15 ft 19 kts
2026-05-07 19:02 55.61933 12.64862 15 ft 19 kts 34°
2026-05-07 19:02 55.62048 12.64995 15 ft 19 kts 33°
2026-05-07 19:03 55.62163 12.65128 15 ft 19 kts 33°
2026-05-07 19:03 55.62271 12.65087 17 ft 17 kts 304°
2026-05-07 19:03 55.62341 12.64891 16 ft 18 kts 301°
2026-05-07 19:03 55.62417 12.64690 17 ft 18 kts 304°
2026-05-07 19:04 55.62491 12.64490 18 ft 18 kts 304°
2026-05-07 19:04 55.62560 12.64303 16 ft 12 kts 306°
2026-05-07 19:04 55.62631 12.64287 18 ft 10 kts 28°
2026-05-07 19:04 55.62688 12.64330 18 ft 5 kts 15°
2026-05-07 19:05 55.62719 12.64303 18 ft 2 kts 310°
2026-05-07 19:05 55.62730 12.64276 18 ft 2 kts 305°
2026-05-07 19:05 55.62732 12.64273 18 ft 0 kts 304°